Regional Weather Roundup
Issued by NWS

Home | Current Version | Previous Version | Graphics & Text | Print | Product List | Glossary On
Versions: 1 2 3 4 5 6 7 8 9 10 11 12 13 14 15 16 17 18 19 20 21 22 23 24 25 26 27
000
ASUS45 KBOI 221510
RWRID

IDAHO REGIONAL WEATHER ROUNDUP
NATIONAL WEATHER SERVICE BOISE ID
800 AM MST MON JAN 22 2018

NOTE: "FAIR" INDICATES FEW OR NO CLOUDS BELOW 12000 FEET
WITH NO SIGNIFICANT WEATHER AND/OR OBSTRUCTIONS TO VISIBILITY

IDZ012-014-221600-
SOUTHWEST IDAHO


CITY           SKY/WX    TMP DP  RH WIND       PRES   REMARKS
BOISE          CLOUDY    35  33  92 E9        30.18R WCI  28
CALDWELL         N/A     36  34  92 SE13      30.19S WCI  27
MOUNTAIN HOME  MOCLDY    32  32 100 E15       30.18S WCI  22
$$

IDZ016-017-221600-
SOUTHCENTRAL IDAHO


CITY           SKY/WX    TMP DP  RH WIND       PRES   REMARKS
BURLEY         CLOUDY    33  21  61 S18       30.18S WCI  22
JEROME         LGT SNOW  31  29  92 SE9       30.19S VSB 1   WCI  23
TWIN FALLS     LGT SNOW  31  30  96 S15       30.17F FOG     WCI  20
$$

IDZ019>023-221600-
SOUTHEAST IDAHO


CITY           SKY/WX    TMP DP  RH WIND       PRES   REMARKS
IDAHO FALLS    CLOUDY    24  19  81 N5        30.21S WCI  18
POCATELLO      CLOUDY    30  19  63 S21G26    30.20S WCI  17
REXBURG        LGT SNOW  23  20  88 S6        30.21S FOG     WCI  16
$$

IDZ006-010-011-018-031-032-221600-
CENTRAL IDAHO MOUNTAINS


CITY           SKY/WX    TMP DP  RH WIND       PRES   REMARKS
MCCALL         LGT SNOW  28  25  88 CALM      30.07S FOG
HAILEY         LGT SNOW  23  21  93 NW5       30.16F WCI  17
STANLEY          N/A     19  16  88 CALM      30.08R
SALMON         CLOUDY    24  19  81 NE3       30.16S
CHALLIS        CLOUDY    24  17  74 CALM      30.12S
$$

IDZ002-004-006-007-026-221600-
NORTHERN IDAHO


CITY           SKY/WX    TMP DP  RH WIND       PRES   REMARKS
LEWISTON       MOCLDY    37  34  89 SE5       30.16R WCI  33
LOWELL           N/A     32  32 100 CALM      30.20R
COEUR D`ALENE  CLEAR     27  25  92 CALM      30.10S
MULLAN PASS    LGT SNOW  22  21  96 VRB5      29.98S FOG     WCI  16
$$




USA.gov is the U.S. government's official web portal to all federal, state and local government web resources and services.